Regional Weather Roundup
Issued by NWS

Home | Current Version | Previous Version | Text Only | Print | Product List | Glossary On
Versions: 1 2 3 4 5 6 7 8 9 10 11 12 13 14 15 16 17 18 19 20 21 22 23 24 25 26 27 28 29 30 31 32 33 34 35 36 37 38 39 40 41 42 43 44 45 46 47 48 49 50
000
ASUS44 KJAN 280910
RWRMS

MISSISSIPPI HOURLY WEATHER ROUNDUP
NATIONAL WEATHER SERVICE JACKSON MS
400 AM CDT WED JUN 28 2017

NOTE: "FAIR: INDICATES FEW OR NO CLOUDS BELOW 12,000 FEET WITH NO
SIGNIFICANT WEATHER AND/OR OBSTRUCTIONS TO VISIBILITY.

MSZ001>002-007>008-010>013-018>021-025>028-034>036-281000-
NORTHWEST MISSISSIPPI

CITY           SKY/WX    TMP DP  RH WIND       PRES   REMARKS
BATESVILLE     FAIR      65  64  96 CALM      30.05R
CLARKSDALE       N/A     68  68 100 E3        30.03S
CLEVELAND      FAIR      71  69  95 SE6       30.02S
GREENWOOD      CLOUDY    70  65  84 SE6       30.02S
GREENVILLE     PTCLDY    67  64  90 SE3       30.02S
OXFORD         FAIR      66  63  88 SE5       30.07R
TUNICA           N/A     66  64  94 SE5       30.04S
WINONA         FAIR      66  66  99 CALM      30.04R
$$

MSZ003>006-009-014>017-022>024-029>033-037>039-281000-
NORTHEAST MISSISSIPPI

CITY           SKY/WX    TMP DP  RH WIND       PRES   REMARKS
COLUMBUS AFB   CLEAR     66  66 100 NE3       30.04S
CORINTH          N/A    N/A N/A N/A MISG        N/A
GOLDN TRIANGLE PTCLDY    68  59  73 E7        30.01S
STARKVILLE     FAIR      68  63  83 CALM      30.06R
TUPELO         PTCLDY    67  63  87 CALM      30.05F
$$

MSZ040-058-281000-
CENTRAL MISSISSIPPI

CITY           SKY/WX    TMP DP  RH WIND       PRES   REMARKS
JACKSON INTL   CLEAR     69  64  84 CALM      30.02F
JACKSON HAWKNS CLEAR     71  64  78 SE5       30.02F
MADISON        FAIR      68  66  94 CALM      30.02S
MERIDIAN KEY   CLEAR     67  66  97 CALM      30.03F
MERIDIAN NAS   CLEAR     68  62  81 CALM      30.04S
RAYMOND        FAIR      68  66  94 CALM      30.01S FOG
VICKSBURG VKS    N/A     70  66  88 CALM      29.98S
$$

MSZ059>079-281000-
SOUTH MISSISSIPPI

CITY           SKY/WX    TMP DP  RH WIND       PRES   REMARKS
COLUMBIA       FAIR      68  68 100 CALM      30.04S
HATTIESBURG    CLOUDY    70  68  93 CALM      30.02F
LAUREL           N/A     67  67 100 CALM      30.03S
MCCOMB         CLOUDY    73  68  84 E3        30.01S
NATCHEZ        PTCLDY    69  67  93 SE3       30.01S
PINE BELT      CLOUDY    68  64  88 CALM      30.04S
$$

MSZ080>082-281000-
COASTAL MISSISSIPPI

CITY           SKY/WX    TMP DP  RH WIND       PRES   REMARKS
BILOXI         CLOUDY    76  69  80 NE6       29.98F
PASCAGOULA     CLOUDY    73  69  87 NE3       29.99S
GULFPORT       MOCLDY    77  69  76 CALM      29.98F
$$

LAZ007>009-015>016-023>026-281000-
NORTHEAST LOUISIANA

CITY           SKY/WX    TMP DP  RH WIND       PRES   REMARKS
BASTROP        FAIR      68  67  98 CALM      30.01F
TALLULAH/VBURG CLEAR     69  67  93 CALM      30.01S FOG
VIDALIA        FAIR      69  67  94 CALM      29.98F
$$



USA.gov is the U.S. government's official web portal to all federal, state and local government web resources and services.